User: anonymous   Login
Location: Unspecified
(43.4354°N, 0.0000°E)
Time: 09:45:11
(UTC+00:00)
Language:

Transit 2A Rocket - Orbit

View from above orbital plane
View from above orbital plane
View from above satellite
View from above satellite

Ground track
Ground track

The orbit data is extracted from the following two-line orbital elements,

1    47U 60007C   19174.88774489 -.00000059 +00000-0 +12072-4 0  9992
2    47 066.6664 036.3788 0231541 208.0466 150.8006 14.42038836082834
Epoch (UTC): 23 June 2019 21:18:21
Eccentricity: 0.0231541
inclination: 66.6664°
perigee height: 586 km
apogee height: 917 km
right ascension of ascending node: 36.3788°
argument of perigee: 208.0466°
revolutions per day: 14.42038836
mean anomaly at epoch: 150.8006°
orbit number at epoch: 8283

The dashed part of the orbit path shows where the satellite is in the earth's shadow,  

DLR